Time,TemperatureF,DewpointF,PressureIn,WindDirection,WindDirectionDegrees,WindSpeedMPH,WindSpeedGustMPH,Humidity,HourlyPrecipIn,Conditions,Clouds,dailyrainin,SoftwareType,DateUTC
2013-09-24 00:13:00,74.6,70.0,29.79,NE,36,0.0,0.0,84,0.00,,,0.00,weatherlink.com 1.10,2013-09-24 05:13:00,
2013-09-24 00:28:00,74.6,70.0,29.79,NE,36,0.0,0.0,84,0.00,,,0.00,weatherlink.com 1.10,2013-09-24 05:28:00,
2013-09-24 00:43:00,74.6,70.0,29.79,NE,36,0.0,0.0,84,0.00,,,0.00,weatherlink.com 1.10,2013-09-24 05:43:00,
2013-09-24 00:58:00,74.7,70.0,29.79,NE,36,0.0,0.0,85,0.00,,,0.00,weatherlink.com 1.10,2013-09-24 05:58:00,
2013-09-24 01:13:00,74.7,70.0,29.79,NE,36,0.0,0.0,85,0.00,,,0.00,weatherlink.com 1.10,2013-09-24 06:13:00,
2013-09-24 01:29:00,74.8,70.0,29.79,NE,36,0.0,0.0,85,0.00,,,0.00,weatherlink.com 1.10,2013-09-24 06:29:00,
2013-09-24 01:44:00,75.0,71.0,29.79,NE,36,0.0,0.0,86,0.00,,,0.00,weatherlink.com 1.10,2013-09-24 06:44:00,
2013-09-24 01:59:00,75.1,70.0,29.79,NE,36,0.0,0.0,85,0.00,,,0.00,weatherlink.com 1.10,2013-09-24 06:59:00,
2013-09-24 02:14:00,75.2,71.0,29.79,NE,36,0.0,0.0,85,0.00,,,0.00,weatherlink.com 1.10,2013-09-24 07:14:00,
2013-09-24 02:29:00,75.3,71.0,29.79,NE,36,0.0,0.0,86,0.00,,,0.00,weatherlink.com 1.10,2013-09-24 07:29:00,
2013-09-24 02:44:00,75.4,71.0,29.79,NE,36,0.0,0.0,85,0.00,,,0.00,weatherlink.com 1.10,2013-09-24 07:44:00,
2013-09-24 02:59:00,75.3,71.0,29.79,NE,36,0.0,0.0,85,0.00,,,0.00,weatherlink.com 1.10,2013-09-24 07:59:00,
2013-09-24 03:14:00,75.2,71.0,29.79,NE,36,0.0,0.0,85,0.00,,,0.00,weatherlink.com 1.10,2013-09-24 08:14:00,
2013-09-24 03:29:00,74.9,71.0,29.79,NE,36,0.0,0.0,86,0.00,,,0.00,weatherlink.com 1.10,2013-09-24 08:29:00,
2013-09-24 03:44:00,74.8,70.0,29.79,NE,36,0.0,0.0,86,0.00,,,0.00,weatherlink.com 1.10,2013-09-24 08:44:00,
2013-09-24 03:59:00,74.7,71.0,29.79,NE,36,0.0,0.0,87,0.00,,,0.00,weatherlink.com 1.10,2013-09-24 08:59:00,
2013-09-24 04:14:00,74.7,71.0,29.79,NE,36,0.0,0.0,87,0.00,,,0.00,weatherlink.com 1.10,2013-09-24 09:14:00,
2013-09-24 04:29:00,74.8,71.0,29.79,NE,36,0.0,0.0,87,0.00,,,0.00,weatherlink.com 1.10,2013-09-24 09:29:00,
2013-09-24 04:44:00,74.9,71.0,29.79,NE,36,0.0,1.0,88,0.00,,,0.00,weatherlink.com 1.10,2013-09-24 09:44:00,
2013-09-24 04:59:00,75.1,71.0,29.79,NE,36,0.0,2.0,88,0.00,,,0.00,weatherlink.com 1.10,2013-09-24 09:59:00,
2013-09-24 05:14:00,75.4,71.0,29.79,NE,36,1.0,2.0,87,0.00,,,0.00,weatherlink.com 1.10,2013-09-24 10:14:00,
2013-09-24 05:29:00,75.7,72.0,29.79,NE,36,0.0,1.0,87,0.00,,,0.00,weatherlink.com 1.10,2013-09-24 10:29:00,
2013-09-24 05:44:00,75.7,72.0,29.79,NE,36,0.0,0.0,87,0.00,,,0.00,weatherlink.com 1.10,2013-09-24 10:44:00,
2013-09-24 05:59:00,75.5,71.0,29.79,NE,36,0.0,0.0,86,0.00,,,0.00,weatherlink.com 1.10,2013-09-24 10:59:00,
2013-09-24 06:14:00,75.2,71.0,29.80,NE,36,2.0,3.0,87,0.00,,,0.00,weatherlink.com 1.10,2013-09-24 11:14:00,
2013-09-24 06:29:00,75.0,71.0,29.80,North,10,1.0,2.0,87,0.00,,,0.00,weatherlink.com 1.10,2013-09-24 11:29:00,
2013-09-24 06:44:00,74.9,71.0,29.80,North,11,0.0,2.0,87,0.00,,,0.00,weatherlink.com 1.10,2013-09-24 11:44:00,
2013-09-24 06:59:00,74.8,71.0,29.80,North,11,2.0,3.0,87,0.00,,,0.00,weatherlink.com 1.10,2013-09-24 11:59:00,
2013-09-24 07:14:00,74.7,71.0,29.81,North,11,0.0,0.0,87,0.00,,,0.00,weatherlink.com 1.10,2013-09-24 12:14:00,
2013-09-24 07:29:00,74.6,71.0,29.81,NNE,26,0.0,1.0,87,0.00,,,0.00,weatherlink.com 1.10,2013-09-24 12:29:00,
2013-09-24 07:44:00,74.4,71.0,29.81,NNE,26,0.0,1.0,88,0.00,,,0.00,weatherlink.com 1.10,2013-09-24 12:44:00,
2013-09-24 07:59:00,74.2,71.0,29.81,NNE,26,0.0,0.0,88,0.00,,,0.00,weatherlink.com 1.10,2013-09-24 12:59:00,
2013-09-24 08:14:00,74.2,71.0,29.82,NNE,26,0.0,1.0,89,0.00,,,0.00,weatherlink.com 1.10,2013-09-24 13:14:00,
2013-09-24 08:29:00,74.8,71.0,29.82,WNW,293,0.0,2.0,89,0.00,,,0.00,weatherlink.com 1.10,2013-09-24 13:29:00,
2013-09-24 08:44:00,75.5,71.0,29.82,North,360,2.0,4.0,86,0.00,,,0.00,weatherlink.com 1.10,2013-09-24 13:44:00,
2013-09-24 08:59:00,77.0,71.0,29.83,NNW,341,1.0,4.0,81,0.00,,,0.00,weatherlink.com 1.10,2013-09-24 13:59:00,
2013-09-24 09:14:00,78.2,71.0,29.83,North,9,1.0,5.0,79,0.00,,,0.00,weatherlink.com 1.10,2013-09-24 14:14:00,
2013-09-24 09:29:00,79.3,71.0,29.83,NW,312,3.0,6.0,76,0.00,,,0.00,weatherlink.com 1.10,2013-09-24 14:29:00,
2013-09-24 09:44:00,80.0,72.0,29.83,NW,315,3.0,3.0,76,0.00,,,0.00,weatherlink.com 1.10,2013-09-24 14:44:00,
2013-09-24 09:59:00,81.0,72.0,29.84,NNE,13,3.0,5.0,75,0.00,,,0.00,weatherlink.com 1.10,2013-09-24 14:59:00,
2013-09-24 10:14:00,82.4,73.0,29.84,West,281,1.0,4.0,74,0.00,,,0.00,weatherlink.com 1.10,2013-09-24 15:14:00,
2013-09-24 10:29:00,83.6,74.0,29.84,WNW,285,1.0,4.0,72,0.00,,,0.00,weatherlink.com 1.10,2013-09-24 15:29:00,
2013-09-24 10:44:00,84.6,74.0,29.84,North,360,3.0,8.0,70,0.00,,,0.00,weatherlink.com 1.10,2013-09-24 15:44:00,
2013-09-24 10:59:00,84.9,74.0,29.84,North,9,2.0,6.0,69,0.00,,,0.00,weatherlink.com 1.10,2013-09-24 15:59:00,
2013-09-24 11:14:00,85.1,74.0,29.84,WNW,291,2.0,6.0,70,0.00,,,0.00,weatherlink.com 1.10,2013-09-24 16:14:00,
2013-09-24 11:30:00,85.5,75.0,29.84,WNW,296,2.0,7.0,70,0.00,,,0.00,weatherlink.com 1.10,2013-09-24 16:30:00,
2013-09-24 11:45:00,85.7,74.0,29.83,North,11,3.0,5.0,69,0.00,,,0.00,weatherlink.com 1.10,2013-09-24 16:45:00,
2013-09-24 12:00:00,87.2,74.0,29.83,NNW,344,2.0,7.0,64,0.00,,,0.00,weatherlink.com 1.10,2013-09-24 17:00:00,
2013-09-24 12:15:00,88.0,72.0,29.83,NNW,333,3.0,8.0,60,0.00,,,0.00,weatherlink.com 1.10,2013-09-24 17:15:00,
2013-09-24 12:30:00,88.8,72.0,29.82,NE,44,4.0,6.0,58,0.00,,,0.00,weatherlink.com 1.10,2013-09-24 17:30:00,
2013-09-24 12:45:00,88.7,70.0,29.81,North,355,4.0,8.0,54,0.00,,,0.00,weatherlink.com 1.10,2013-09-24 17:45:00,
2013-09-24 13:00:00,88.8,70.0,29.81,North,355,5.0,7.0,54,0.00,,,0.00,weatherlink.com 1.10,2013-09-24 18:00:00,
2013-09-24 13:15:00,89.5,70.0,29.81,NNE,19,2.0,7.0,52,0.00,,,0.00,weatherlink.com 1.10,2013-09-24 18:15:00,
2013-09-24 13:30:00,90.1,69.0,29.80,NW,311,4.0,6.0,50,0.00,,,0.00,weatherlink.com 1.10,2013-09-24 18:30:00,
2013-09-24 13:45:00,89.9,69.0,29.80,NE,56,6.0,9.0,50,0.00,,,0.00,weatherlink.com 1.10,2013-09-24 18:45:00,
2013-09-24 14:00:00,90.1,70.0,29.80,WNW,297,4.0,8.0,51,0.00,,,0.00,weatherlink.com 1.10,2013-09-24 19:00:00,
2013-09-24 14:15:00,90.9,70.0,29.79,North,5,0.0,7.0,51,0.00,,,0.00,weatherlink.com 1.10,2013-09-24 19:15:00,
2013-09-24 14:30:00,91.2,69.0,29.78,North,349,2.0,7.0,49,0.00,,,0.00,weatherlink.com 1.10,2013-09-24 19:30:00,
2013-09-24 14:45:00,91.1,70.0,29.78,North,355,7.0,7.0,50,0.00,,,0.00,weatherlink.com 1.10,2013-09-24 19:45:00,
2013-09-24 15:00:00,91.0,67.0,29.77,North,355,4.0,9.0,46,0.00,,,0.00,weatherlink.com 1.10,2013-09-24 20:00:00,
2013-09-24 15:15:00,91.7,67.0,29.77,West,275,0.0,9.0,45,0.00,,,0.00,weatherlink.com 1.10,2013-09-24 20:15:00,
2013-09-24 15:30:00,91.9,65.0,29.77,NE,34,4.0,10.0,41,0.00,,,0.00,weatherlink.com 1.10,2013-09-24 20:30:00,
2013-09-24 15:45:00,91.9,66.0,29.77,NW,312,1.0,8.0,43,0.00,,,0.00,weatherlink.com 1.10,2013-09-24 20:45:00,
2013-09-24 16:00:00,92.0,66.0,29.77,NW,321,8.0,9.0,42,0.00,,,0.00,weatherlink.com 1.10,2013-09-24 21:00:00,
2013-09-24 16:15:00,91.6,67.0,29.76,NNE,18,6.0,8.0,44,0.00,,,0.00,weatherlink.com 1.10,2013-09-24 21:15:00,
2013-09-24 16:30:00,91.4,65.0,29.76,North,5,4.0,9.0,41,0.00,,,0.00,weatherlink.com 1.10,2013-09-24 21:30:00,
2013-09-24 16:45:00,91.4,65.0,29.76,North,350,3.0,12.0,41,0.00,,,0.00,weatherlink.com 1.10,2013-09-24 21:45:00,
2013-09-24 17:00:00,91.3,65.0,29.76,NNE,20,1.0,7.0,42,0.00,,,0.00,weatherlink.com 1.10,2013-09-24 22:00:00,
2013-09-24 17:15:00,90.9,65.0,29.76,NW,312,4.0,7.0,43,0.00,,,0.00,weatherlink.com 1.10,2013-09-24 22:15:00,
2013-09-24 17:30:00,90.4,66.0,29.76,North,10,3.0,6.0,44,0.00,,,0.00,weatherlink.com 1.10,2013-09-24 22:30:00,
2013-09-24 17:45:00,90.2,65.0,29.76,NNW,328,1.0,6.0,44,0.00,,,0.00,weatherlink.com 1.10,2013-09-24 22:45:00,
2013-09-24 18:00:00,89.4,65.0,29.76,NNE,27,3.0,5.0,45,0.00,,,0.00,weatherlink.com 1.10,2013-09-24 23:00:00,
2013-09-24 18:15:00,88.9,65.0,29.76,NNE,24,3.0,6.0,45,0.00,,,0.00,weatherlink.com 1.10,2013-09-24 23:15:00,
2013-09-24 18:30:00,87.9,66.0,29.76,NNE,14,0.0,3.0,49,0.00,,,0.00,weatherlink.com 1.10,2013-09-24 23:30:00,
2013-09-24 18:45:00,87.5,68.0,29.76,NNE,24,0.0,3.0,52,0.00,,,0.00,weatherlink.com 1.10,2013-09-24 23:45:00,
2013-09-24 19:00:00,85.8,67.0,29.76,NNE,32,0.0,1.0,53,0.00,,,0.00,weatherlink.com 1.10,2013-09-25 00:00:00,
2013-09-24 19:15:00,83.6,66.0,29.77,NNE,32,0.0,0.0,56,0.00,,,0.00,weatherlink.com 1.10,2013-09-25 00:15:00,
2013-09-24 19:30:00,81.9,67.0,29.77,NNE,32,0.0,0.0,60,0.00,,,0.00,weatherlink.com 1.10,2013-09-25 00:30:00,
2013-09-24 19:45:00,80.1,66.0,29.77,NNE,32,0.0,0.0,62,0.00,,,0.00,weatherlink.com 1.10,2013-09-25 00:45:00,
2013-09-24 20:00:00,78.8,66.0,29.77,NNE,32,0.0,0.0,65,0.00,,,0.00,weatherlink.com 1.10,2013-09-25 01:00:00,
2013-09-24 20:15:00,77.6,65.0,29.78,NNE,32,0.0,0.0,66,0.00,,,0.00,weatherlink.com 1.10,2013-09-25 01:15:00,
2013-09-24 20:30:00,76.4,66.0,29.78,NNE,32,0.0,1.0,69,0.00,,,0.00,weatherlink.com 1.10,2013-09-25 01:30:00,
2013-09-24 20:45:00,75.5,65.0,29.78,NNE,32,0.0,0.0,71,0.00,,,0.00,weatherlink.com 1.10,2013-09-25 01:45:00,
2013-09-24 21:00:00,75.0,65.0,29.79,NNE,32,0.0,0.0,71,0.00,,,0.00,weatherlink.com 1.10,2013-09-25 02:00:00,
2013-09-24 21:15:00,74.7,65.0,29.80,NNE,32,0.0,0.0,72,0.00,,,0.00,weatherlink.com 1.10,2013-09-25 02:15:00,
2013-09-24 21:30:00,74.3,66.0,29.80,NNE,32,0.0,0.0,74,0.00,,,0.00,weatherlink.com 1.10,2013-09-25 02:30:00,
2013-09-24 21:45:00,73.7,65.0,29.80,NNE,32,0.0,0.0,75,0.00,,,0.00,weatherlink.com 1.10,2013-09-25 02:45:00,
2013-09-24 22:00:00,73.2,64.0,29.81,NNE,32,0.0,0.0,74,0.00,,,0.00,weatherlink.com 1.10,2013-09-25 03:00:00,
2013-09-24 22:15:00,72.6,65.0,29.81,NNE,32,0.0,0.0,77,0.00,,,0.00,weatherlink.com 1.10,2013-09-25 03:15:00,
2013-09-24 22:30:00,72.0,65.0,29.81,NNE,32,0.0,0.0,78,0.00,,,0.00,weatherlink.com 1.10,2013-09-25 03:30:00,
2013-09-24 22:45:00,71.4,65.0,29.80,NNE,32,0.0,0.0,79,0.00,,,0.00,weatherlink.com 1.10,2013-09-25 03:45:00,
2013-09-24 23:00:00,71.0,65.0,29.80,NNE,32,0.0,0.0,80,0.00,,,0.00,weatherlink.com 1.10,2013-09-25 04:00:00,
2013-09-24 23:15:00,70.5,64.0,29.80,NNE,32,0.0,0.0,81,0.00,,,0.00,weatherlink.com 1.10,2013-09-25 04:15:00,
2013-09-24 23:30:00,70.0,64.0,29.80,NNE,32,0.0,1.0,81,0.00,,,0.00,weatherlink.com 1.10,2013-09-25 04:30:00,
2013-09-24 23:45:00,69.4,64.0,29.80,NNE,32,0.0,0.0,82,0.00,,,0.00,weatherlink.com 1.10,2013-09-25 04:45:00,